#timestamp,LO_Frequency,Hit 
1502622015.7,286046999.2,N
1502622035.5,286046997.8,N
1502622055.4,286046997.5,N
1502622075.2,286046994.9,P
1502622095.1,286047001.1,N
1502622096.0,286047001.1,N
1502622115.8,286047000.3,N
1502622135.6,286047002.7,N
1502622155.5,286047001.0,N
1502622175.3,286047001.2,N
1502622195.2,286047000.7,N
1502622215.9,286047000.9,N
1502622235.7,286047001.9,N
1502622255.6,286046999.8,N
1502622275.4,286047002.7,N
1502622295.2,286047002.6,N
1502622315.1,286046998.5,N
1502622316.0,286046998.5,N
1502622335.8,286047000.7,N
1502622355.7,286047000.6,N
1502622375.5,286046999.9,N
1502622395.3,286047000.2,N
1502622415.2,286047002.8,N
1502622435.0,286047001.2,N
1502622435.9,286047001.2,N
1502622455.8,286047000.8,N
1502622475.6,286047001.0,N
1502622495.4,286046998.7,N
1502622515.3,286046998.6,N
1502622535.1,286046998.5,N
1502622555.8,286046998.4,N
1502622575.7,286047000.7,N
1502622595.5,286046998.4,N
1502622615.4,286046997.0,N
1502622635.2,286046997.4,N
1502622655.0,286046995.7,N
1502622655.9,286046995.7,N
1502622675.8,286046995.5,N
1502622695.6,286046996.4,N
1502622715.5,286046993.7,P
1502622735.3,286046993.4,N
1502622755.1,286046995.8,N
1502622775.9,286046993.4,N
1502622795.7,286046994.0,N
1502622815.5,286046993.9,N
1502622835.4,286046992.0,P
1502622855.2,286046999.2,N
1502622875.1,286046997.0,N
1502622876.0,286046997.0,N
1502622895.8,286046997.2,N
1502622915.6,286046997.5,N
1502622935.5,286046999.6,N
1502622955.3,286046997.3,N
1502622975.2,286046999.2,N
1502622995.9,286046996.6,N
1502623015.7,286046996.6,N
1502623035.6,286046996.6,N
1502623055.4,286046998.2,N
1502623075.2,286047000.1,N
1502623095.1,286047000.1,N
1502623096.0,286047000.1,N
1502623115.8,286046999.8,N
1502623135.7,286047000.3,N
1502623155.5,286047001.0,N
1502623175.3,286047002.7,N
1502623195.2,286047001.5,N
1502623215.0,286047002.6,N
1502623235.3,286046999.8,N
1502623255.1,286046999.7,N
1502623275.9,286047002.5,N
1502623295.7,286047002.4,N
1502623315.6,286047002.1,N
1502623335.4,286047002.1,P
1502623355.2,286047002.4,N
1502623375.1,286047002.7,N
1502623376.0,286047002.7,N
1502623395.8,286047002.8,N
1502623415.6,286047002.3,N
1502623435.5,286047002.2,N
1502623455.3,286047004.3,P
1502623475.2,286046999.9,N
1502623495.9,286047000.2,N
1502623515.7,286046999.9,N
1502623535.6,286047002.6,N
1502623555.4,286047001.9,N
1502623575.3,286047001.4,N
1502623595.1,286047001.3,N
1502623596.0,286047001.3,N
1502623615.8,286047004.0,P
1502623635.7,286046999.7,N
1502623655.5,286047000.7,N
1502623675.3,286047001.2,N
1502623695.2,286046998.3,N
1502623715.0,286046998.6,N
1502623715.9,286046998.6,N
1502623735.8,286047000.8,N
1502623755.6,286046998.7,N
1502623775.4,286046998.3,N
1502623795.3,286046998.8,N
1502623815.1,286047000.5,N
1502623835.9,286047001.2,N
1502623855.7,286047000.7,N
1502623875.5,286046998.8,N
1502623895.4,286047000.8,N
1502623915.2,286046999.4,N
1502623935.0,286047000.7,N
1502623935.9,286047000.7,N
1502623955.8,286046999.8,N
1502623975.6,286047002.1,N
1502623995.5,286047002.8,N
1502624015.3,286046999.8,N
1502624035.1,286047002.8,N
1502624055.9,286047000.7,N
1502624075.7,286047000.3,N
1502624095.5,286047000.8,N
1502624115.4,286046998.5,N
1502624135.2,286046998.7,N
1502624155.1,286046998.6,N
1502624156.0,286046998.6,N
1502624175.8,286046998.2,N
1502624195.6,286046998.7,N
1502624215.5,286046996.9,N
1502624235.3,286046997.1,N
1502624255.1,286046996.6,N
1502624275.9,286046997.1,N
1502624295.7,286046997.7,N
1502624315.6,286046995.4,N
1502624335.4,286046994.9,N
1502624355.2,286046995.1,N
1502624375.1,286046993.5,P
1502624376.0,286046993.5,N
1502624395.8,286046995.0,N
1502624415.7,286046996.0,N
1502624435.5,286046995.4,N
1502624455.3,286046995.9,N
1502624475.2,286046995.0,N
1502624495.0,286046997.4,N
1502624495.9,286046997.4,N
1502624545.8,286046995.0,E
1502624555.7,286046999.5,N
1502624575.5,286047000.3,P
1502624595.4,286047000.4,N
1502624615.2,286046999.9,N
1502624635.1,286047000.2,N
1502624636.0,286047000.2,N
1502624655.8,286047001.0,P
1502624675.6,286046998.5,P
1502624695.5,286046996.6,P
1502624715.3,286046996.5,N
1502624735.1,286047000.8,N
1502624755.9,286047000.7,N
1502624775.7,286046999.9,N
1502624795.6,286046999.8,N
1502624815.4,286047000.9,N
1502624835.2,286047000.1,N
1502624855.1,286047000.1,N
1502624856.0,286047000.1,N
1502624875.8,286047002.4,N
1502624895.7,286047000.3,N
1502624915.5,286046998.1,N
1502624935.3,286047000.3,N
1502624955.2,286047002.7,N
1502624975.0,286047004.4,N
1502624975.9,286047004.4,N
1502624995.8,286047004.1,N
1502625015.6,286047001.3,N
1502625035.4,286047004.3,N
1502625055.3,286047003.7,P
1502625075.1,286047002.2,N
1502625095.8,286047002.6,N
1502625115.7,286047001.5,N
1502625135.5,286047001.8,N
1502625155.4,286047001.9,N
1502625175.2,286047004.3,P
1502625195.0,286047002.1,N
1502625195.9,286047002.1,N
1502625215.8,286046999.8,N
1502625235.6,286047000.3,N
1502625255.5,286047000.5,N
1502625275.3,286046998.4,N
1502625295.1,286046999.9,N
1502625315.9,286046999.8,N
1502625335.7,286046999.8,N
1502625355.6,286047002.6,N
1502625375.4,286047002.6,N
1502625395.2,286047002.3,N
1502625415.1,286047001.5,N
1502625416.0,286047001.5,N
1502625435.8,286047002.5,N
1502625455.6,286047000.2,N
1502625475.5,286047000.3,N
1502625495.3,286047000.9,N
1502625515.2,286047000.3,N
1502625535.9,286046999.4,N
1502625555.7,286046999.1,N
1502625575.6,286046999.6,N
1502625595.4,286046999.2,N
